WB7UVH Weather Reports


Display with metric or nautical units.
time (UTC)temp
F
wind
direction
speed
MPH
gust
MPH
rain 1hr
in
rain 24hr
in
rain mn
in
humidity
%
barometer
mb
20260906223004 60 246 0.0 0.0 0.00 0.40 0.38 94 1022.1
20260906221504 59 246 0.0 0.0 0.00 0.40 0.38 94 1022.0
20260906220003 59 269 0.0 0.0 0.00 0.40 0.38 94 1022.0
20260906214504 59 252 0.0 0.0 0.00 0.40 0.38 94 1021.9
20260906213004 59 227 0.0 0.0 0.00 0.40 0.38 95 1021.9
20260906211504 59 277 0.0 0.0 0.00 0.40 0.38 96 1021.7
20260906210004 59 264 0.0 0.0 0.00 0.40 0.38 96 1021.6
20260906204504 59 265 0.0 0.0 0.00 0.40 0.38 97 1021.6
20260906203005 58 268 0.0 0.0 0.00 0.40 0.38 97 1021.7
20260906201503 58 268 0.0 0.0 0.00 0.40 0.38 97 1021.6
20260906194504 58 268 0.0 0.0 0.00 0.40 0.38 97 1021.4
20260906193004 58 267 0.0 0.0 0.00 0.40 0.38 97 1021.5
20260906191504 58 84 0.0 0.0 0.00 0.40 0.38 97 1021.4
20260906190004 58 83 0.0 0.0 0.00 0.40 0.38 97 1021.4
20260906184504 58 83 0.0 0.0 0.00 0.40 0.38 97 1021.4
20260906183004 58 83 0.0 0.0 0.00 0.40 0.38 97 1021.4
20260906181504 57 82 0.0 0.0 0.00 0.40 0.38 97 1021.5
20260906180004 57 82 0.0 0.0 0.01 0.40 0.38 97 1021.3
20260906174504 57 82 0.0 0.0 0.01 0.40 0.38 97 1021.2
20260906171504 57 82 0.0 0.0 0.04 0.40 0.38 97 1021.3
20260906164503 57 82 0.0 0.0 0.08 0.39 0.37 97 1021.1
20260906160004 57 82 0.0 0.0 0.08 0.34 0.32 97 1021.1
20260906154505 57 82 0.0 0.0 0.07 0.31 0.29 97 1021.0
20260906153004 56 82 0.0 0.0 0.08 0.30 0.28 97 1020.9
20260906144504 56 58 0.0 0.0 0.09 0.24 0.22 96 1020.4
20260906143004 56 58 0.0 0.0 0.10 0.22 0.20 96 1020.2
20260906141504 56 58 0.0 0.0 0.11 0.20 0.18 96 1020.1
20260906134504 56 58 0.0 0.0 0.10 0.15 0.13 96 1020.0
20260906131504 56 58 0.0 0.0 0.05 0.09 0.07 95 1020.0
20260906130004 56 58 0.0 0.0 0.03 0.07 0.05 95 1019.9
20260906124503 56 58 0.0 0.0 0.01 0.05 0.03 95 1019.8
20260906123003 56 58 0.0 0.0 0.00 0.04 0.02 95 1019.8
20260906121504 56 58 0.0 0.0 0.00 0.04 0.02 95 1019.9
20260906120004 57 58 0.0 0.0 0.00 0.04 0.02 95 1019.9
20260906114504 57 58 0.0 0.0 0.01 0.04 0.02 94 1019.9
20260906113004 57 58 0.0 0.0 0.02 0.04 0.02 94 1020.0
20260906110004 57 11 0.0 0.0 0.02 0.04 0.02 93 1020.0
20260906104503 57 38 0.0 0.0 0.01 0.03 0.01 92 1019.9
20260906103004 57 91 0.0 0.0 0.00 0.02 0.00 92 1020.0
20260906101504 58 329 0.0 0.0 0.00 0.02 0.00 92 1019.9
20260906100004 58 348 0.0 0.0 0.00 0.02 0.00 91 1020.0
20260906094504 58 9 0.0 0.0 0.00 0.02 0.00 91 1020.0
20260906093004 58 24 0.0 0.0 0.00 0.02 0.00 91 1020.1
20260906091504 58 24 0.0 0.0 0.00 0.02 0.00 91 1020.0
20260906090005 58 24 0.0 0.0 0.00 0.02 0.00 91 1020.0
20260906084504 58 24 0.0 0.0 0.00 0.02 0.00 91 1020.1
20260906083004 58 24 0.0 0.0 0.00 0.02 0.00 90 1020.0
20260906080004 58 0 0.0 0.0 0.00 0.02 0.00 91 1019.8
20260906074503 58 0 0.0 0.0 0.00 0.02 0.00 91 1019.8
20260906073004 58 0 0.0 0.0 0.00 0.02 0.00 91 1019.9
20260906071504 58 0 0.0 0.0 0.00 0.02 0.00 91 1019.9
20260906070004 58 0 0.0 0.0 0.00 0.02 0.00 91 1019.9
20260906064504 58 73 0.0 0.0 0.00 0.02 0.02 91 1019.9
20260906063004 58 331 0.0 0.0 0.00 0.02 0.02 91 1019.8
20260906061503 58 331 0.0 0.0 0.00 0.02 0.02 92 1020.0
20260906060004 57 331 0.0 0.0 0.00 0.02 0.02 92 1019.9
20260906054504 57 331 0.0 0.0 0.00 0.02 0.02 91 1020.0
20260906051504 57 44 0.0 0.0 0.00 0.03 0.02 92 1020.1
20260906050004 57 13 0.0 0.0 0.00 0.03 0.02 91 1020.2
20260906044503 57 13 0.0 0.0 0.00 0.03 0.02 91 1020.5
20260906041504 58 13 0.0 0.0 0.00 0.03 0.02 91 1020.6
20260906040004 58 13 0.0 0.0 0.00 0.03 0.02 91 1020.4
20260906034505 58 13 0.0 0.0 0.00 0.03 0.02 91 1020.3
20260906033004 59 13 0.0 0.0 0.00 0.03 0.02 91 1020.1
20260906031504 59 13 0.0 0.0 0.00 0.03 0.02 90 1019.9
20260906030004 59 14 0.0 0.0 0.00 0.03 0.02 90 1019.7
20260906023004 60 13 0.0 0.0 0.00 0.03 0.02 89 1019.6
20260906021504 60 14 0.0 0.0 0.00 0.03 0.02 89 1019.6
20260906020004 61 13 0.0 0.0 0.00 0.03 0.02 89 1019.8
20260906014504 61 13 0.0 0.0 0.00 0.03 0.02 89 1019.8
20260906013003 62 13 0.0 0.0 0.00 0.03 0.02 88 1020.0
20260906011504 62 13 0.0 0.0 0.00 0.03 0.02 88 1020.0
20260906010004 63 13 0.0 0.0 0.00 0.03 0.02 87 1020.0
20260906004504 64 13 0.0 0.0 0.00 0.03 0.02 87 1020.0
20260906003004 65 13 0.0 0.0 0.01 0.03 0.02 86 1020.1
20260906001503 65 14 0.0 0.0 0.02 0.03 0.02 81 1020.3
20260905234504 67 13 0.0 0.0 0.02 0.03 0.02 79 1020.3
20260905233004 70 13 0.0 0.0 0.01 0.02 0.01 69 1020.4
20260905231504 71 73 0.0 0.0 0.00 0.01 0.00 58 1020.2
20260905230004 72 126 0.0 0.0 0.00 0.02 0.00 54 1020.3
20260905224504 72 125 0.0 0.0 0.00 0.03 0.00 54 1020.3